Theta_e
317 317 316 314 312 310 309 313 303 311 310 303 298 298 301 306 305 308 306 305 302 301 302 302 303 304 308 316 308 300 300 293 293 297 302 302 299 295 291 289 290 287 291 293
318 317 316 314 311 310 308 310 309 314 309 298 300 304 306 307 307 307 306 307 305 304 302 299 306 308 314 315 313 304 306 296 292 295 298 302 302 302 299 290 287 288 291 295
318 317 315 313 312 311 312 311 305 308 307 303 303 302 303 305 313 309 309 307 308 305 304 305 303 305 311 313 314 328 309 294 294 292 294 298 300 304 307 292 292 287 291 296
318 317 316 314 312 311 309 307 304 307 302 306 304 301 304 304 304 309 307 305 307 303 299 299 301 304 306 309 317 309 302 297 298 296 300 304 303 308 311 306 303 292 298 300
318 317 316 314 312 311 312 306 304 308 305 305 303 302 301 303 305 305 303 302 306 307 299 300 299 300 300 302 307 304 302 297 299 295 303 304 304 308 312 311 312 308 307 305
319 318 317 315 313 311 310 310 310 308 304 304 303 302 303 305 306 307 310 307 303 302 306 308 305 304 305 305 302 301 299 297 295 292 299 299 298 304 309 310 312 310 305 311
319 318 317 316 314 310 307 310 308 304 301 305 306 308 308 308 306 304 308 310 305 309 311 305 305 303 302 302 302 302 297 297 294 293 294 288 300 311 314 311 313 314 314 315
320 319 318 317 315 313 309 310 308 304 299 305 306 307 305 305 305 305 306 310 312 311 304 300 296 297 299 301 305 302 297 298 296 293 291 295 303 308 308 304 308 315 314 317
320 319 319 318 316 313 308 310 311 307 302 300 308 304 304 300 299 303 306 311 311 307 300 298 292 291 295 297 303 305 302 299 298 294 292 291 299 311 316 313 303 316 316 315
319 320 318 318 317 314 307 310 311 307 302 305 304 302 302 305 302 300 302 306 307 306 296 294 293 293 300 298 298 298 297 297 295 295 293 298 308 313 313 298 299 313 319 317
319 319 319 318 317 316 309 307 311 309 302 304 308 310 306 305 303 299 303 303 304 303 299 298 298 299 302 300 301 298 297 295 294 295 293 293 314 312 303 306 312 315 318 318
319 319 319 318 317 316 312 303 309 311 305 305 310 313 315 313 311 304 301 303 302 304 300 300 300 298 301 299 296 302 297 300 299 300 299 306 311 312 315 316 312 314 315 319
318 319 319 318 317 316 312 303 305 307 303 305 305 307 310 313 313 312 303 303 307 304 307 302 300 298 301 296 299 300 303 306 301 303 305 310 312 314 318 320 319 319 319 320
318 318 318 318 317 316 313 303 305 306 304 299 304 314 310 314 311 312 311 308 308 306 306 302 300 299 302 298 300 302 305 304 302 302 305 309 313 316 318 320 321 321 323 322
317 317 318 318 316 314 309 304 306 309 305 298 300 308 310 311 311 311 311 308 306 304 303 300 300 302 302 301 301 301 307 305 301 300 306 309 312 316 322 321 320 320 319 320
317 317 317 317 315 312 307 306 312 309 311 302 296 305 307 311 311 309 310 308 306 306 304 302 303 305 304 298 296 302 308 309 309 309 313 314 317 319 321 320 322 322 322 322
316 316 316 315 313 306 305 305 311 308 308 302 297 298 306 311 310 309 309 309 309 308 305 303 304 305 305 299 299 306 307 310 312 314 313 309 315 314 319 321 323 323 323 323
316 315 315 314 312 309 305 309 309 308 305 303 295 297 302 308 304 304 307 306 306 305 305 304 303 303 303 299 303 307 311 311 311 315 314 309 315 319 321 322 323 323 324 326
315 315 313 306 303 302 307 315 314 313 306 299 299 295 296 307 303 305 306 305 301 305 302 302 303 299 299 303 304 306 308 310 312 314 314 314 314 320 323 323 324 323 325 328
314 309 306 303 305 316 316 309 304 308 307 304 300 300 298 301 300 302 302 303 301 299 302 306 301 300 306 307 308 309 310 312 312 312 312 316 316 321 319 319 322 325 326 329
308 304 303 308 317 309 306 302 303 303 302 304 302 299 297 303 298 298 302 299 300 296 300 302 299 300 305 310 309 310 310 313 314 315 317 318 319 317 318 319 322 321 323 328
308 308 311 311 304 301 301 301 301 302 298 300 298 300 300 301 304 301 301 298 299 296 303 303 297 302 312 314 315 310 311 313 319 321 320 319 319 318 317 316 316 317 319 325
311 308 307 304 303 294 296 293 298 295 301 302 302 301 302 302 303 300 300 298 297 303 297 298 301 310 313 314 316 316 315 321 320 319 320 319 317 318 317 314 314 314 316 319
302 301 291 297 297 298 297 296 297 302 303 303 305 305 303 302 301 300 297 300 300 296 295 297 307 310 312 313 316 318 317 319 317 317 317 316 314 314 315 316 315 314 314 316
301 300 291 295 299 298 300 301 301 302 304 306 305 305 307 303 301 300 299 298 297 298 298 302 307 311 314 317 318 316 315 314 313 313 314 314 314 314 314 315 314 314 314 314
302 301 298 296 295 296 298 299 299 301 302 308 307 306 304 303 302 300 298 298 297 299 303 305 307 307 312 316 319 319 318 316 316 317 316 315 315 314 314 314 313 313 313 312
299 295 297 296 297 299 300 299 300 303 305 303 303 301 298 305 301 299 299 298 301 304 304 305 304 305 309 313 315 317 319 319 316 316 315 315 316 314 313 312 314 314 313 312
Wind_Speed
24 25 27 27 26 24 4 3 5 3 2 5 2 1 4 7 4 8 5 4 1 3 5 7 5 4 3 14 5 6 4 6 2 4 2 6 6 4 4 6 5 1 4 9
24 25 27 28 26 17 1 4 2 3 4 4 5 7 6 1 8 8 7 8 4 6 5 5 4 5 7 9 11 3 2 3 4 8 8 6 8 5 2 3 3 7 7 8
24 26 27 28 29 14 2 3 4 6 5 0 3 4 7 8 5 9 4 4 6 7 8 7 5 9 4 7 6 2 7 3 6 6 3 1 2 4 5 4 5 3 7 4
23 25 28 31 29 14 2 5 1 2 4 6 6 2 6 7 8 6 9 7 7 3 6 5 5 5 8 6 7 9 6 4 3 2 1 3 1 5 7 6 2 5 6 5
21 24 26 29 34 17 6 4 4 5 2 4 5 9 6 7 7 5 7 4 5 4 3 4 4 2 2 5 7 6 5 1 3 3 4 5 6 2 6 4 5 2 8 3
19 21 23 25 30 16 5 3 2 3 5 6 3 3 3 5 5 3 4 4 2 4 3 7 6 6 5 6 4 1 2 3 3 2 3 2 5 4 3 4 2 1 5 5
17 19 20 22 22 14 2 1 2 4 2 3 2 5 4 5 5 4 4 5 4 5 9 4 3 3 2 5 6 7 5 4 3 3 2 2 6 4 4 9 3 2 3 5
15 16 18 20 20 20 3 2 3 3 1 2 4 7 4 5 7 4 3 3 3 6 5 5 7 7 6 4 4 7 2 5 4 4 3 2 1 3 2 1 3 2 2 3
13 14 17 18 19 20 3 2 1 3 3 4 3 3 2 2 4 8 4 6 6 6 4 4 2 2 3 5 8 4 5 6 6 2 3 6 5 1 1 0 6 4 2 3
10 12 14 17 18 18 3 2 3 4 1 4 1 2 3 1 1 2 5 8 9 5 3 3 1 3 2 2 3 4 5 5 3 2 1 6 2 6 1 5 7 1 4 4
7 9 11 13 16 17 6 3 3 3 1 6 4 4 2 1 2 2 5 4 4 5 5 2 2 0 2 2 2 0 2 3 0 2 1 5 2 3 2 6 3 2 3 5
7 6 8 9 11 14 10 3 3 2 3 6 4 7 8 6 8 5 2 4 3 3 4 2 1 2 2 1 2 2 1 5 4 7 6 4 4 6 6 3 4 3 1 4
6 6 6 7 8 9 7 3 4 3 3 6 4 5 4 3 7 5 4 3 4 0 4 3 1 2 3 1 4 2 1 2 2 2 3 5 4 5 5 4 4 5 5 8
7 6 5 5 7 7 6 2 1 1 0 2 8 3 6 6 2 6 6 3 3 4 3 2 2 2 3 3 3 3 4 2 2 5 7 6 7 6 5 7 4 7 8 7
7 5 5 4 6 9 3 2 2 0 3 3 7 11 5 6 5 7 7 5 4 2 2 2 3 2 1 1 1 3 5 7 5 7 6 5 8 4 3 3 4 5 4 7
8 6 5 4 5 9 2 3 2 3 1 1 5 5 6 6 4 6 7 5 3 3 5 4 3 4 3 2 3 6 4 4 5 4 3 4 5 6 2 3 7 7 6 9
8 7 5 3 1 2 2 4 2 3 2 2 6 7 6 6 2 2 2 2 2 4 2 3 4 3 4 2 7 9 8 8 7 6 2 4 3 5 7 6 7 7 7 8
8 7 4 3 2 3 4 3 9 5 2 2 2 7 6 3 1 1 1 2 2 1 3 0 2 1 2 5 9 9 15 9 6 8 7 3 2 6 1 3 3 3 5 6
7 5 4 3 1 1 3 5 12 2 3 2 3 3 5 5 2 1 2 2 1 1 2 3 4 1 5 10 8 7 7 8 9 3 6 6 5 3 3 2 4 3 6 7
9 2 2 2 4 5 6 3 2 1 1 1 4 1 5 2 3 3 1 2 2 1 5 3 3 6 9 8 10 7 7 8 4 5 5 3 2 4 1 1 2 4 6 6
1 3 3 2 1 3 1 2 3 3 4 4 5 6 3 2 2 3 2 2 1 0 5 4 3 5 5 5 8 10 8 7 7 4 4 6 6 4 2 4 5 5 6 4
4 3 3 2 3 1 2 4 3 5 6 4 5 6 6 4 3 2 1 1 2 5 1 2 3 5 9 9 5 4 8 7 5 5 9 8 7 6 6 3 4 6 7 7
1 2 4 3 3 5 7 8 5 4 4 4 4 3 4 0 1 2 2 2 5 2 0 3 3 5 8 8 6 6 6 9 9 8 6 7 7 6 5 5 4 5 7 7
3 6 5 6 6 7 8 5 5 5 3 3 3 2 4 3 3 3 3 5 1 2 2 1 3 5 9 7 5 8 6 6 8 8 7 6 6 5 5 5 4 5 7 7
5 4 7 8 5 2 3 3 2 3 2 1 1 2 2 2 3 3 1 2 4 3 2 1 4 6 4 7 8 6 7 6 6 4 5 4 4 4 4 5 5 5 5 6
3 5 3 3 2 3 3 3 3 2 2 2 0 3 1 2 2 3 7 4 5 3 3 3 3 3 5 5 5 6 5 3 5 3 2 2 3 3 4 6 5 6 5 7
6 5 3 2 2 3 2 2 2 1 1 3 3 6 5 3 3 3 3 5 5 4 2 3 3 2 2 2 3 4 4 5 5 2 2 3 3 4 5 7 7 6 6 6
Wind_Direction
342 342 340 340 341 334 43 72 49 313 330 33 56 262 215 284 315 26 46 87 72 30 30 38 57 356 281 330 306 88 352 125 185 201 308 352 112 39 122 117 246 282 154 266
347 347 345 344 348 348 89 73 254 338 62 48 329 306 305 345 32 9 32 0 13 35 44 101 48 311 300 358 25 26 150 356 27 347 356 10 56 337 315 108 80 195 142 260
351 351 350 351 353 359 39 72 35 338 47 116 322 334 345 1 2 57 36 29 61 49 26 3 15 356 325 334 3 355 105 79 140 158 195 194 52 355 10 95 77 294 228 242
353 356 354 354 357 1 20 26 31 184 343 334 351 33 353 7 7 18 20 28 38 69 35 15 13 346 321 346 4 12 76 74 95 149 162 116 124 71 34 69 322 173 295 313
355 359 360 359 356 356 70 74 39 354 312 307 3 14 342 12 334 32 349 40 330 34 94 170 259 104 340 285 329 13 5 118 46 21 18 132 76 51 83 76 359 327 321 183
355 0 3 5 4 3 66 332 358 95 313 345 52 327 323 0 342 316 44 313 14 3 346 294 243 200 206 220 258 359 356 102 66 245 321 175 30 315 107 131 53 247 30 275
353 358 3 7 11 25 90 317 86 54 313 30 333 326 352 21 353 275 316 16 37 282 328 290 320 308 297 201 265 192 161 104 96 214 3 189 232 23 79 104 81 83 206 313
352 356 1 5 7 9 62 323 67 84 330 261 308 347 349 335 328 342 294 320 244 306 9 31 6 344 12 352 65 27 149 123 94 139 175 298 348 219 211 30 254 272 297 334
351 354 358 2 5 5 40 346 127 101 105 257 294 310 329 318 323 338 307 316 309 27 72 69 103 271 290 327 343 64 75 77 111 120 137 192 241 2 73 334 296 217 244 318
346 352 356 359 2 4 12 310 28 88 70 268 35 260 244 337 57 257 303 335 346 23 42 63 101 281 272 332 15 336 3 2 86 73 166 294 2 300 292 135 235 212 234 229
336 346 352 356 0 1 19 286 340 85 236 276 218 255 231 348 89 172 281 23 350 18 52 85 272 245 293 25 290 131 154 111 225 73 93 286 29 1 235 220 293 238 247 210
311 335 346 349 359 360 4 337 340 337 169 249 253 250 250 202 192 155 326 180 207 201 75 10 348 335 8 127 284 17 288 174 188 170 218 246 256 218 262 217 226 299 245 247
288 309 336 342 352 4 20 291 302 6 14 301 343 238 345 159 201 173 133 281 207 148 168 157 203 280 123 255 253 310 272 156 205 29 263 249 261 263 247 254 220 268 278 280
264 284 303 325 335 346 3 329 286 103 92 352 283 350 301 296 198 197 193 171 45 93 81 128 150 207 162 225 232 179 211 99 185 273 286 288 269 245 240 265 307 296 284 261
243 262 290 308 325 330 313 215 255 268 114 256 282 311 263 281 257 222 186 172 136 149 77 100 229 233 117 268 68 247 184 189 166 226 221 176 255 259 170 219 257 296 297 286
235 242 263 289 333 349 20 16 7 359 100 49 312 296 293 312 280 191 162 167 142 128 149 210 249 251 124 240 250 253 209 206 195 251 199 257 292 308 273 228 235 236 248 253
226 229 245 263 352 67 160 205 219 56 0 60 308 312 282 301 20 32 94 66 140 132 182 211 207 244 135 187 239 263 255 238 251 224 91 258 278 269 299 260 281 296 288 286
209 208 219 278 312 282 322 259 238 134 65 87 275 274 329 353 325 246 49 146 48 333 206 39 199 19 135 256 249 231 241 244 271 233 194 225 269 279 255 252 295 321 312 284
195 185 121 55 55 137 247 81 120 121 134 216 221 226 259 352 357 290 10 82 86 288 208 239 114 252 226 230 225 250 209 184 224 240 188 224 248 245 26 338 350 5 340 334
155 135 137 221 222 205 104 27 51 347 254 232 249 262 263 37 0 326 68 28 197 253 247 110 168 248 252 239 220 229 194 205 186 127 140 144 189 157 167 7 342 360 342 325
142 173 194 229 135 70 119 226 201 176 226 208 227 199 213 274 153 238 181 194 202 285 265 150 242 272 263 337 254 226 215 224 209 213 159 138 154 145 89 30 17 3 353 349
184 154 144 89 77 97 210 211 224 209 234 203 188 204 194 256 154 132 274 196 49 246 198 180 258 271 301 318 327 230 172 197 148 142 121 117 124 144 131 97 20 354 336 330
167 153 133 141 177 187 206 203 205 219 208 193 192 205 186 258 104 105 100 175 235 345 337 229 239 290 311 331 355 58 139 123 112 109 104 128 110 84 83 56 31 0 344 335
129 166 197 204 194 222 199 186 190 229 158 150 188 195 181 179 123 150 155 233 58 266 224 174 325 308 321 340 14 69 53 89 119 123 121 102 98 88 62 51 31 9 351 329
187 149 213 215 228 258 214 203 275 259 237 4 334 33 141 166 161 182 121 221 245 219 145 237 296 309 349 11 9 42 85 81 64 64 96 100 78 63 19 359 351 2 346 343
178 212 242 241 185 238 244 227 257 273 216 145 34 119 88 244 188 160 210 182 215 183 168 220 279 324 24 21 32 8 360 45 95 78 59 41 16 3 325 324 331 343 338 331
195 226 214 186 279 235 207 147 207 254 140 193 137 173 178 128 196 236 194 199 170 162 195 221 231 347 22 47 61 31 350 328 325 329 300 282 286 318 332 322 306 323 309 297